When you browse on this site, cookies collect data to enhance your experience and personalize the content and advertising you see.
Visit our Privacy Policy to learn more. By continuing to use the site, you agree to this use of cookies and data.

Hourly Weather Maun

Today, 4 August, Tuesday

Time Temperature Precipitation Wind Pressure Humidity
00:00 +14°C° 0 mm 2 mps 684 mmHg 40%
01:00 +13°C° 0 mm 2 mps 684 mmHg 41%
02:00 +12°C° 0 mm 2 mps 685 mmHg 45%
03:00 +12°C° 0 mm 2 mps 684 mmHg 47%
04:00 +10°C° 0 mm 2 mps 684 mmHg 49%
05:00 +9°C° 0 mm 2 mps 684 mmHg 51%
06:00 +10°C° 0 mm 2 mps 684 mmHg 51%
07:00 +10°C° 0 mm 2 mps 685 mmHg 51%
08:00 +12°C° 0 mm 2 mps 686 mmHg 51%
09:00 +16°C° 0 mm 2 mps 686 mmHg 42%
10:00 +20°C° 0 mm 2 mps 687 mmHg 33%
11:00 +25°C° 0 mm 2 mps 687 mmHg 23%
12:00 +27°C° 0 mm 1 mps 687 mmHg 20%
13:00 +29°C° 0 mm 1 mps 686 mmHg 17%
14:00 +30°C° 0 mm 1 mps 685 mmHg 14%
15:00 +29°C° 0 mm 1 mps 685 mmHg 14%
16:00 +29°C° 0 mm 1 mps 684 mmHg 15%
17:00 +28°C° 0 mm 1 mps 684 mmHg 15%
18:00 +25°C° 0 mm 1 mps 683 mmHg 18%
19:00 +22°C° 0 mm 1 mps 683 mmHg 22%
20:00 +19°C° 0 mm 1 mps 682 mmHg 26%
21:00 +18°C° 0 mm 1 mps 683 mmHg 27%
22:00 +16°C° 0 mm 1 mps 683 mmHg 29%
23:00 +15°C° 0 mm 2 mps 683 mmHg 31%

Tomorrow, 5 August, Wednesday

Time Temperature Precipitation Wind Pressure Humidity
00:00 +14°C° 0 mm 1 mps 683 mmHg 34%
01:00 +14°C° 0 mm 1 mps 683 mmHg 36%
02:00 +13°C° 0 mm 1 mps 682 mmHg 38%
03:00 +12°C° 0 mm 1 mps 682 mmHg 40%
04:00 +12°C° 0 mm 1 mps 682 mmHg 42%
05:00 +11°C° 0 mm 1 mps 682 mmHg 43%
06:00 +12°C° 0 mm 1 mps 682 mmHg 41%
07:00 +13°C° 0 mm 1 mps 683 mmHg 38%
08:00 +14°C° 0 mm 1 mps 684 mmHg 36%
09:00 +18°C° 0 mm 2 mps 684 mmHg 29%
10:00 +23°C° 0 mm 2 mps 685 mmHg 22%
11:00 +27°C° 0 mm 2 mps 686 mmHg 16%
12:00 +29°C° 0 mm 2 mps 686 mmHg 13%
13:00 +31°C° 0 mm 1 mps 685 mmHg 11%
14:00 +31°C° 0 mm 0 mps 685 mmHg 9%
15:00 +30°C° 0 mm 0 mps 684 mmHg 9%
16:00 +29°C° 0 mm 0 mps 684 mmHg 10%
17:00 +28°C° 0 mm 0 mps 683 mmHg 10%
18:00 +26°C° 0 mm 1 mps 683 mmHg 13%
19:00 +23°C° 0 mm 1 mps 682 mmHg 15%
20:00 +20°C° 0 mm 1 mps 682 mmHg 18%
21:00 +19°C° 0 mm 1 mps 682 mmHg 19%
22:00 +18°C° 0 mm 1 mps 682 mmHg 20%
23:00 +16°C° 0 mm 1 mps 682 mmHg 22%

Day after tomorrow, 6 August, Thursday

Time Temperature Precipitation Wind Pressure Humidity
00:00 +16°C° 0 mm 1 mps 682 mmHg 22%
01:00 +15°C° 0 mm 1 mps 682 mmHg 23%
02:00 +14°C° 0 mm 1 mps 681 mmHg 24%
03:00 +14°C° 0 mm 1 mps 681 mmHg 24%
04:00 +14°C° 0 mm 1 mps 681 mmHg 25%
05:00 +14°C° 0 mm 1 mps 681 mmHg 25%
06:00 +15°C° 0 mm 2 mps 682 mmHg 25%
07:00 +15°C° 0 mm 2 mps 683 mmHg 24%
08:00 +16°C° 0 mm 2 mps 683 mmHg 24%
09:00 +21°C° 0 mm 1 mps 684 mmHg 20%
10:00 +26°C° 0 mm 1 mps 685 mmHg 16%
11:00 +28°C° 0 mm 0 mps 686 mmHg 12%
12:00 +31°C° 0 mm 1 mps 685 mmHg 11%
13:00 +32°C° 0 mm 1 mps 685 mmHg 10%
14:00 +33°C° 0 mm 1 mps 684 mmHg 9%
15:00 +32°C° 0 mm 1 mps 683 mmHg 9%
16:00 +31°C° 0 mm 2 mps 683 mmHg 9%
17:00 +31°C° 0 mm 2 mps 683 mmHg 9%
18:00 +28°C° 0 mm 2 mps 682 mmHg 11%
19:00 +25°C° 0 mm 1 mps 682 mmHg 14%
20:00 +22°C° 0 mm 1 mps 682 mmHg 16%
21:00 +20°C° 0 mm 2 mps 683 mmHg 17%
22:00 +19°C° 0 mm 2 mps 683 mmHg 17%
23:00 +18°C° 0 mm 2 mps 684 mmHg 18%

7 August, Friday

Time Temperature Precipitation Wind Pressure Humidity
00:00 +17°C° 0 mm 3 mps 684 mmHg 22%
01:00 +15°C° 0 mm 4 mps 683 mmHg 27%
02:00 +14°C° 0 mm 4 mps 683 mmHg 31%
03:00 +13°C° 0 mm 4 mps 683 mmHg 32%
04:00 +12°C° 0 mm 4 mps 683 mmHg 34%
05:00 +11°C° 0 mm 4 mps 683 mmHg 35%
06:00 +11°C° 0 mm 4 mps 684 mmHg 33%
07:00 +12°C° 0 mm 4 mps 685 mmHg 30%
08:00 +12°C° 0 mm 4 mps 685 mmHg 28%
09:00 +17°C° 0 mm 4 mps 686 mmHg 23%
10:00 +21°C° 0 mm 4 mps 687 mmHg 19%
11:00 +26°C° 0 mm 3 mps 687 mmHg 15%
12:00 +28°C° 0 mm 3 mps 687 mmHg 13%
13:00 +30°C° 0 mm 3 mps 686 mmHg 11%
14:00 +33°C° 0 mm 3 mps 685 mmHg 8%
15:00 +32°C° 0 mm 2 mps 685 mmHg 8%
16:00 +32°C° 0 mm 2 mps 685 mmHg 8%
17:00 +32°C° 0 mm 2 mps 684 mmHg 8%
18:00 +28°C° 0 mm 2 mps 684 mmHg 12%
19:00 +25°C° 0 mm 2 mps 684 mmHg 16%
20:00 +21°C° 0 mm 2 mps 684 mmHg 20%
21:00 +20°C° 0 mm 3 mps 684 mmHg 30%
22:00 +19°C° 0 mm 4 mps 685 mmHg 41%
23:00 +19°C° 0 mm 5 mps 686 mmHg 51%

8 August, Saturday

Time Temperature Precipitation Wind Pressure Humidity
00:00 +17°C° 0 mm 5 mps 685 mmHg 55%
01:00 +16°C° 0 mm 5 mps 685 mmHg 59%
02:00 +15°C° 0 mm 4 mps 685 mmHg 63%
03:00 +14°C° 0 mm 4 mps 685 mmHg 66%
04:00 +13°C° 0 mm 4 mps 685 mmHg 70%
05:00 +12°C° 0 mm 5 mps 685 mmHg 73%
06:00 +12°C° 0 mm 5 mps 685 mmHg 72%
07:00 +13°C° 0 mm 5 mps 686 mmHg 71%
08:00 +13°C° 0 mm 5 mps 686 mmHg 69%
09:00 +16°C° 0 mm 5 mps 687 mmHg 61%
10:00 +19°C° 0 mm 4 mps 687 mmHg 52%
11:00 +22°C° 0 mm 4 mps 688 mmHg 43%
12:00 +25°C° 0 mm 4 mps 687 mmHg 38%
13:00 +27°C° 0 mm 3 mps 686 mmHg 32%
14:00 +29°C° 0 mm 3 mps 685 mmHg 26%
15:00 +30°C° 0 mm 2 mps 685 mmHg 24%
16:00 +30°C° 0 mm 2 mps 684 mmHg 21%
17:00 +30°C° 0 mm 1 mps 684 mmHg 19%
18:00 +27°C° 0 mm 1 mps 684 mmHg 23%
19:00 +24°C° 0 mm 1 mps 684 mmHg 27%
20:00 +22°C° 0 mm 1 mps 684 mmHg 31%
21:00 +21°C° 0 mm 1 mps 684 mmHg 34%
22:00 +19°C° 0 mm 2 mps 684 mmHg 37%
23:00 +18°C° 0 mm 2 mps 684 mmHg 40%

9 August, Sunday

Time Temperature Precipitation Wind Pressure Humidity
00:00 +17°C° 0 mm 2 mps 683 mmHg 42%
01:00 +16°C° 0 mm 2 mps 683 mmHg 45%
02:00 +16°C° 0 mm 2 mps 682 mmHg 48%
03:00 +15°C° 0 mm 2 mps 682 mmHg 48%
04:00 +15°C° 0 mm 2 mps 682 mmHg 49%
05:00 +15°C° 0 mm 2 mps 682 mmHg 49%
06:00 +15°C° 0 mm 2 mps 682 mmHg 48%
07:00 +16°C° 0 mm 2 mps 683 mmHg 47%
08:00 +16°C° 0 mm 2 mps 683 mmHg 47%
09:00 +20°C° 0 mm 2 mps 684 mmHg 38%
10:00 +25°C° 0 mm 2 mps 684 mmHg 30%
11:00 +29°C° 0 mm 3 mps 685 mmHg 22%
12:00 +31°C° 0 mm 2 mps 685 mmHg 18%
13:00 +33°C° 0 mm 1 mps 684 mmHg 14%
14:00 +35°C° 0 mm 1 mps 684 mmHg 10%
15:00 +34°C° 0 mm 1 mps 683 mmHg 10%
16:00 +33°C° 0 mm 1 mps 683 mmHg 10%
17:00 +32°C° 0 mm 1 mps 682 mmHg 10%
18:00 +29°C° 0 mm 1 mps 682 mmHg 13%
19:00 +26°C° 0 mm 1 mps 681 mmHg 16%
20:00 +22°C° 0 mm 1 mps 681 mmHg 19%
21:00 +22°C° 0 mm 1 mps 681 mmHg 20%
22:00 +21°C° 0 mm 1 mps 681 mmHg 21%
23:00 +20°C° 0 mm 1 mps 681 mmHg 22%
Show more